[TLELIST] Archives

 

[list_settings.list_name] Current TLEs

October 24th 2020 PST

HST 1 20580U 90037B 20298.16915089 .00000653 00000-0 28704-4 0 9993 2 20580 28.4689 188.2910 0002766 41.7991 91.9308 15.09456341475526 ISS (ZARYA) 1 25544U 98067A 20298.37263390 .00001319 00000-0 31750-4 0 9998 2 25544 51.6448 69.2520 0001629 54.9921 42.3352 15.49328208252046 CXO 1 25867U 99040B 20298.74712558 +.00000773 +00000-0 +00000-0 0 9997 2 25867 060.1429 263.3907 7939206 226.8895 000.4513 00.37808117020682 ____________________________________________________________________ These 2-Line ...Continue Reading

[list_settings.list_name] Current TLEs

October 23rd 2020 PST

HST 1 20580U 90037B 20296.83533876 +.00000620 +00000-0 +26746-4 0 9993 2 20580 028.4691 197.1137 0002713 027.8992 043.4761 15.09455100475221 ISS (ZARYA) 1 25544U 98067A 20297.39369944 .00001271 00000-0 30889-4 0 9990 2 25544 51.6448 74.0969 0001649 50.4929 343.1492 15.49324636251898 CXO 1 25867U 99040B 20298.74712558 +.00000773 +00000-0 +00000-0 0 9997 2 25867 060.1429 263.3907 7939206 226.8895 000.4513 00.37808117009555 ____________________________________________________________________ These 2-Line ...Continue Reading

[list_settings.list_name] Current TLEs

October 22nd 2020 PST

HST 1 20580U 90037B 20296.18442410 .00000602 00000-0 25597-4 0 9997 2 20580 28.4691 201.4194 0002697 21.0432 106.2264 15.09454491475227 ISS (ZARYA) 1 25544U 98067A 20296.37453139 .00000809 00000-0 22591-4 0 9994 2 25544 51.6444 79.1364 0001590 51.0061 54.4182 15.49321387251739 CXO 1 25867U 99040B 20298.74576225 .00000773 00000-0 00000+0 0 9995 2 25867 60.1429 263.3907 7939204 226.8896 0.2657 0.37807918 20686 ____________________________________________________________________ These 2-Line ...Continue Reading

[list_settings.list_name] Current TLEs

October 21st 2020 PST

HST 1 20580U 90037B 20294.92012058 +.00000574 +00000-0 +23888-4 0 9997 2 20580 028.4691 209.7824 0002639 007.4235 075.9607 15.09453458474935 ISS (ZARYA) 1 25544U 98067A 20295.35963795 .00000910 00000-0 24407-4 0 9996 2 25544 51.6443 84.1588 0001466 49.7675 151.3038 15.49319521251575 CXO 1 25867U 99040B 20296.10380390 +.00000740 +00000-0 +00000-0 0 9994 2 25867 060.1960 263.4627 7934643 226.9279 000.5599 00.37804412020677 ____________________________________________________________________ These 2-Line ...Continue Reading

[list_settings.list_name] Current TLEs

October 20th 2020 PST

HST 1 20580U 90037B 20293.21241748 +.00000533 +00000-0 +21432-4 0 9996 2 20580 028.4692 221.0785 0002568 348.8123 156.4689 15.09452168474772 ISS (ZARYA) 1 25544U 98067A 20294.37096557 .00000594 00000-0 18744-4 0 9995 2 25544 51.6439 89.0512 0001400 51.1888 31.8778 15.49315911251428 CXO 1 25867U 99040B 20296.10380390 +.00000740 +00000-0 +00000-0 0 9994 2 25867 060.1960 263.4627 7934643 226.9279 000.5599 00.37804412020677 ____________________________________________________________________ These 2-Line ...Continue Reading

[list_settings.list_name] Current TLEs

October 19th 2020 PST

HST 1 20580U 90037B 20292.55458110 .00000505 00000-0 19722-4 0 9993 2 20580 28.4692 225.4300 0002548 341.4885 182.0068 15.09451628474670 ISS (ZARYA) 1 25544U 98067A 20293.45860649 .00000505 00000-0 17149-4 0 9994 2 25544 51.6437 93.5675 0001358 48.2606 342.7306 15.49313436251288 CXO 1 25867U 99040B 20296.10201151 .00000740 00000-0 00000+0 0 9990 2 25867 60.1961 263.4627 7934631 226.9280 0.3152 0.37804503 20671 ____________________________________________________________________ These 2-Line ...Continue Reading

[list_settings.list_name] Current TLEs

October 18th 2020 PST

HST 1 20580U 90037B 20291.29178821 .00000483 00000-0 18396-4 0 9992 2 20580 28.4693 233.7833 0002504 327.1894 160.6571 15.09450787474482 ISS (ZARYA) 1 25544U 98067A 20292.37013293 .00000826 00000-0 22903-4 0 9999 2 25544 51.6433 98.9550 0001372 43.5451 32.4525 15.49312590251115 CXO 1 25867U 99040B 20293.46094819 .00000751 00000-0 00000+0 0 9999 2 25867 60.2469 263.5291 7930019 226.9837 0.7175 0.37802720 20664 ____________________________________________________________________ These 2-Line ...Continue Reading

[list_settings.list_name] Current TLEs

October 17th 2020 PST

HST 1 20580U 90037B 20290.57102890 +.00000472 +00000-0 +17678-4 0 9995 2 20580 028.4694 238.5510 0002486 319.0468 204.4146 15.09450322474271 ISS (ZARYA) 1 25544U 98067A 20291.19160880 .00000807 00000-0 22576-4 0 9998 2 25544 51.6427 104.7871 0001562 38.0847 300.3325 15.49309804250926 CXO 1 25867U 99040B 20293.46094819 .00000751 00000-0 00000+0 0 9999 2 25867 60.2469 263.5291 7930019 226.9837 0.7175 0.37802720 20664 ____________________________________________________________________ These 2-Line ...Continue Reading

[list_settings.list_name] Current TLEs

October 16th 2020 PST

HST 1 20580U 90037B 20290.15945683 .00000476 00000-0 17949-4 0 9999 2 20580 28.4694 241.2735 0002468 314.2885 128.2485 15.09450113474302 ISS (ZARYA) 1 25544U 98067A 20290.36920063 .00000576 00000-0 18417-4 0 9995 2 25544 51.6430 108.8569 0001463 36.4554 31.9399 15.49306678250807 CXO 1 25867U 99040B 20290.81470775 .00000858 00000-0 00000+0 0 9992 2 25867 60.3146 263.6290 7929178 227.0120 0.4426 0.37812871 20651 ____________________________________________________________________ These 2-Line ...Continue Reading

[list_settings.list_name] Current TLEs

October 15th 2020 PST

HST 1 20580U 90037B 20288.62197917 .00000469 00000-0 17516-4 0 9999 2 20580 28.4696 251.4436 0002434 296.6935 54.6013 15.09449266474077 ISS (ZARYA) 1 25544U 98067A 20289.40244330 .00000781 00000-0 22102-4 0 9998 2 25544 51.6433 113.6421 0001550 30.1219 42.6248 15.49305496250659 CXO 1 25867U 99040B 20290.81470775 .00000858 00000-0 00000+0 0 9992 2 25867 60.3146 263.6290 7929178 227.0120 0.4426 0.37812871 20651 ____________________________________________________________________ These 2-Line ...Continue Reading
  • This mailing list is a public mailing list - anyone may join or leave, at any time.
  • This mailing list is announce-only.

International Space Station (ISS) / Hubble Space Telescope (HST) / Chandra X-Ray Observatory Orbital Data via EMAIL

Privacy Policy:

Private list